When you browse on this site, cookies collect data to enhance your experience and personalize the content and advertising you see.
Visit our Privacy Policy to learn more. By continuing to use the site, you agree to this use of cookies and data.
  • In Lithuania
  • List of Countries
  • For 7 days
  • Water Temperature
  • Satellite Maps
  • Weather Map
  • Weather Widgets
  • user-avatar
    Login

    Hourly Weather Innsbruck

    Today, 20 January, Sunday

    Time Temperature Precipitation Wind Pressure Humidity
    00:00 -17°C° 0 mm 2 mps 585 mmHg 78%
    01:00 -16°C° 0 mm 2 mps 586 mmHg 75%
    02:00 -16°C° 0 mm 2 mps 586 mmHg 75%
    03:00 -16°C° 0 mm 2 mps 585 mmHg 75%
    04:00 -17°C° 0 mm 2 mps 585 mmHg 75%
    05:00 -16°C° 0 mm 2 mps 585 mmHg 74%
    06:00 -16°C° 0 mm 2 mps 585 mmHg 73%
    07:00 -16°C° 0 mm 2 mps 585 mmHg 72%
    08:00 -13°C° 0 mm 1 mps 586 mmHg 73%
    09:00 -11°C° 0 mm 1 mps 587 mmHg 75%
    10:00 -9°C° 0 mm 1 mps 588 mmHg 76%
    11:00 -8°C° 0 mm 1 mps 588 mmHg 73%
    12:00 -7°C° 0 mm 1 mps 588 mmHg 71%
    13:00 -6°C° 0 mm 1 mps 589 mmHg 68%
    14:00 -7°C° 0 mm 1 mps 589 mmHg 74%
    15:00 -7°C° 0 mm 1 mps 588 mmHg 79%
    16:00 -8°C° 0 mm 1 mps 588 mmHg 85%
    17:00 -9°C° 0 mm 1 mps 588 mmHg 86%
    18:00 -11°C° 0 mm 1 mps 588 mmHg 86%
    19:00 -12°C° 0 mm 1 mps 587 mmHg 87%
    20:00 -12°C° 0 mm 1 mps 588 mmHg 86%
    21:00 -12°C° 0 mm 1 mps 588 mmHg 84%
    22:00 -13°C° 0 mm 1 mps 588 mmHg 83%
    23:00 -13°C° 0 mm 1 mps 588 mmHg 83%

    Tomorrow, 21 January, Monday

    Time Temperature Precipitation Wind Pressure Humidity
    00:00 -13°C° 0 mm 1 mps 588 mmHg 83%
    01:00 -13°C° 0 mm 1 mps 588 mmHg 83%
    02:00 -13°C° 0.1 mm 1 mps 588 mmHg 83%
    03:00 -13°C° 0.1 mm 1 mps 588 mmHg 84%
    04:00 -13°C° 0.1 mm 1 mps 588 mmHg 84%
    05:00 -13°C° 0.1 mm 1 mps 588 mmHg 85%
    06:00 -14°C° 0.1 mm 1 mps 588 mmHg 85%
    07:00 -14°C° 0.1 mm 1 mps 589 mmHg 86%
    08:00 -12°C° 0 mm 1 mps 589 mmHg 86%
    09:00 -11°C° 0 mm 1 mps 590 mmHg 87%
    10:00 -10°C° 0 mm 1 mps 591 mmHg 87%
    11:00 -9°C° 0 mm 1 mps 591 mmHg 87%
    12:00 -8°C° 0 mm 1 mps 591 mmHg 86%
    13:00 -7°C° 0 mm 1 mps 591 mmHg 86%
    14:00 -7°C° 0.1 mm 1 mps 591 mmHg 88%
    15:00 -7°C° 0.1 mm 1 mps 591 mmHg 89%
    16:00 -8°C° 0.1 mm 1 mps 591 mmHg 91%
    17:00 -9°C° 0 mm 1 mps 590 mmHg 93%
    18:00 -11°C° 0 mm 1 mps 590 mmHg 94%
    19:00 -12°C° 0 mm 0 mps 589 mmHg 96%
    20:00 -13°C° 0 mm 1 mps 589 mmHg 94%
    21:00 -14°C° 0 mm 1 mps 588 mmHg 92%
    22:00 -14°C° 0 mm 1 mps 588 mmHg 90%
    23:00 -15°C° 0 mm 1 mps 588 mmHg 88%

    Day after tomorrow, 22 January, Tuesday

    Time Temperature Precipitation Wind Pressure Humidity
    00:00 -15°C° 0 mm 1 mps 587 mmHg 86%
    01:00 -15°C° 0 mm 1 mps 587 mmHg 84%
    02:00 -17°C° 0 mm 2 mps 587 mmHg 82%
    03:00 -18°C° 0 mm 2 mps 586 mmHg 80%
    04:00 -18°C° 0 mm 2 mps 586 mmHg 78%
    05:00 -18°C° 0 mm 2 mps 585 mmHg 76%
    06:00 -18°C° 0 mm 2 mps 585 mmHg 74%
    07:00 -18°C° 0 mm 2 mps 585 mmHg 72%
    08:00 -16°C° 0 mm 2 mps 585 mmHg 73%
    09:00 -14°C° 0 mm 2 mps 585 mmHg 74%
    10:00 -13°C° 0 mm 2 mps 586 mmHg 75%
    11:00 -10°C° 0 mm 2 mps 586 mmHg 73%
    12:00 -7°C° 0 mm 1 mps 585 mmHg 71%
    13:00 -6°C° 0 mm 1 mps 585 mmHg 69%
    14:00 -7°C° 0 mm 1 mps 584 mmHg 73%
    15:00 -7°C° 0 mm 1 mps 583 mmHg 76%
    16:00 -9°C° 0 mm 2 mps 582 mmHg 79%
    17:00 -12°C° 0 mm 2 mps 581 mmHg 77%
    18:00 -15°C° 0 mm 3 mps 580 mmHg 76%
    19:00 -17°C° 0 mm 3 mps 579 mmHg 74%
    20:00 -18°C° 0 mm 3 mps 578 mmHg 74%
    21:00 -18°C° 0 mm 3 mps 578 mmHg 74%
    22:00 -19°C° 0 mm 3 mps 577 mmHg 75%
    23:00 -19°C° 0 mm 3 mps 577 mmHg 76%

    23 January, Wednesday

    Time Temperature Precipitation Wind Pressure Humidity
    00:00 -19°C° 0 mm 3 mps 577 mmHg 78%
    01:00 -19°C° 0 mm 3 mps 576 mmHg 80%
    02:00 -19°C° 0 mm 3 mps 576 mmHg 79%
    03:00 -21°C° 0 mm 3 mps 576 mmHg 78%
    04:00 -19°C° 0 mm 2 mps 575 mmHg 77%
    05:00 -19°C° 0 mm 2 mps 575 mmHg 75%
    06:00 -19°C° 0 mm 2 mps 575 mmHg 72%
    07:00 -18°C° 0 mm 2 mps 575 mmHg 70%
    08:00 -15°C° 0 mm 1 mps 576 mmHg 71%
    09:00 -13°C° 0 mm 1 mps 577 mmHg 72%
    10:00 -11°C° 0 mm 1 mps 578 mmHg 73%
    11:00 -10°C° 0 mm 1 mps 579 mmHg 72%
    12:00 -9°C° 0 mm 1 mps 579 mmHg 72%
    13:00 -8°C° 0 mm 1 mps 580 mmHg 71%
    14:00 -9°C° 0 mm 1 mps 579 mmHg 77%
    15:00 -9°C° 0 mm 1 mps 579 mmHg 84%
    16:00 -12°C° 0 mm 2 mps 579 mmHg 90%
    17:00 -11°C° 0 mm 1 mps 579 mmHg 92%
    18:00 -13°C° 0 mm 1 mps 579 mmHg 93%
    19:00 -14°C° 0 mm 1 mps 579 mmHg 94%
    20:00 -15°C° 0 mm 1 mps 579 mmHg 92%
    21:00 -16°C° 0 mm 1 mps 579 mmHg 91%
    22:00 -17°C° 0 mm 1 mps 579 mmHg 90%
    23:00 -17°C° 0 mm 1 mps 579 mmHg 86%

    24 January, Thursday

    Time Temperature Precipitation Wind Pressure Humidity
    00:00 -17°C° 0 mm 1 mps 579 mmHg 82%
    01:00 -17°C° 0 mm 1 mps 579 mmHg 79%
    02:00 -17°C° 0 mm 1 mps 580 mmHg 78%
    03:00 -17°C° 0 mm 1 mps 580 mmHg 76%
    04:00 -17°C° 0 mm 1 mps 580 mmHg 75%
    05:00 -18°C° 0 mm 1 mps 580 mmHg 76%
    06:00 -18°C° 0 mm 1 mps 580 mmHg 77%
    07:00 -18°C° 0 mm 1 mps 580 mmHg 78%
    08:00 -16°C° 0 mm 1 mps 581 mmHg 80%
    09:00 -14°C° 0 mm 1 mps 582 mmHg 82%
    10:00 -13°C° 0 mm 1 mps 583 mmHg 83%
    11:00 -14°C° 0 mm 2 mps 583 mmHg 84%
    12:00 -12°C° 0 mm 2 mps 584 mmHg 84%
    13:00 -10°C° 0 mm 2 mps 584 mmHg 84%
    14:00 -12°C° 0 mm 2 mps 584 mmHg 87%
    15:00 -12°C° 0 mm 2 mps 583 mmHg 89%
    16:00 -13°C° 0 mm 2 mps 583 mmHg 92%
    17:00 -14°C° 0 mm 2 mps 583 mmHg 93%
    18:00 -15°C° 0 mm 2 mps 583 mmHg 94%
    19:00 -15°C° 0 mm 1 mps 583 mmHg 96%
    20:00 -15°C° 0 mm 1 mps 583 mmHg 95%
    21:00 -16°C° 0 mm 1 mps 583 mmHg 95%
    22:00 -16°C° 0 mm 1 mps 583 mmHg 95%
    23:00 -17°C° 0 mm 1 mps 583 mmHg 95%

    25 January, Friday

    Time Temperature Precipitation Wind Pressure Humidity
    00:00 -17°C° 0 mm 1 mps 582 mmHg 94%
    01:00 -18°C° 0 mm 1 mps 582 mmHg 93%
    02:00 -18°C° 0 mm 1 mps 582 mmHg 92%
    03:00 -19°C° 0 mm 1 mps 582 mmHg 91%
    04:00 -19°C° 0 mm 1 mps 582 mmHg 90%
    05:00 -19°C° 0 mm 1 mps 582 mmHg 90%
    06:00 -20°C° 0 mm 1 mps 582 mmHg 89%
    07:00 -20°C° 0 mm 1 mps 582 mmHg 88%
    08:00 -18°C° 0 mm 1 mps 584 mmHg 87%
    09:00 -16°C° 0 mm 1 mps 585 mmHg 87%
    10:00 -14°C° 0 mm 1 mps 587 mmHg 86%
    11:00 -13°C° 0 mm 1 mps 587 mmHg 85%
    12:00 -14°C° 0 mm 2 mps 587 mmHg 83%
    13:00 -13°C° 0 mm 2 mps 588 mmHg 81%
    14:00 -14°C° 0 mm 2 mps 588 mmHg 85%
    15:00 -14°C° 0 mm 2 mps 588 mmHg 88%
    16:00 -15°C° 0 mm 2 mps 588 mmHg 91%
    17:00 -16°C° 0 mm 2 mps 588 mmHg 91%
    18:00 -18°C° 0 mm 2 mps 587 mmHg 92%
    19:00 -18°C° 0 mm 1 mps 587 mmHg 92%
    20:00 -18°C° 0 mm 1 mps 587 mmHg 91%
    21:00 -20°C° 0 mm 2 mps 588 mmHg 90%
    22:00 -20°C° 0 mm 2 mps 588 mmHg 89%
    23:00 -20°C° 0 mm 2 mps 588 mmHg 89%
    Show more